Location: *
(51.2167°N, 10.0667°E)
Time: 18:12:05
(UTC+00:00)

Cosmos 2344 - Pass Details

Date: 12 December 2019
Orbit: 1256 x 2986 km, 63.3° (Epoch: 19 January)

Event Time Altitude Azimuth Distance (km) Brightness Sun altitude
Rises 19:06:41 0° 315° (NW) 4,617 7.1 -35.4°
Reaches altitude 10° 19:09:19 10° 314° (NW) 3,775 6.6 -35.8°
Maximum altitude 19:18:47 71° 233° (SW) 2,028 4.5 -37.3°
Enters shadow 19:22:31 49° 169° (SSE) 2,547 4.8 -37.8°
